Location: Zaragoza
(41.6330°N, 0.8830°W)
Time: 09:21:23
(UTC+01:00)

ISS - Visible Passes

Search period start: 15 December 2017 00:00
Search period end: 25 December 2017 00:00
Orbit: 402 x 407 km, 51.6° (Epoch: 15 December)

Date Brightness Start Highest point End Pass type
(mag) Time Alt. Az. Time Alt. Az. Time Alt. Az.
15 Dec -1.7 19:31:40 10° WNW 19:34:28 26° SW 19:36:11 17° S visible
16 Dec -2.9 18:39:07 10° WNW 18:42:19 50° SW 18:45:30 10° SE visible
17 Dec -0.4 19:25:03 10° WSW 19:26:05 11° SW 19:27:07 10° SSW visible
18 Dec -0.9 18:31:28 10° W 18:34:02 21° SW 18:36:35 10° S visible
